Powrót do katalogu

STARLINK-35690

AktywnyŁącznośćVLEO
NORAD 66383·PAYLOAD·🇺🇸 United States

Wystrzelony Nov 8, 2025 z Cape Canaveral Space Force Station

Loading…

Następne Przeloty (najbliższe 24 godziny)

TLE

ŚwieżeSource: CelesTrak SupGP

Epoka: Sep 14, 2026, 20:54 UTC

1 66383C 25257D   26257.87131944  .00049806  00000+0  14717-2 0  2571
2 66383  53.1597  53.8600 0001207  72.4092 179.0221 15.34363181    12

Śledź STARLINK-35690 w czasie rzeczywistym z AllMySat

Download on the App Store